Location: Bönnien
(52.0165°N, 10.1037°E)
Time: 23:24:29
(UTC+00:00)

Daily predictions for brighter satellites

Satellite Brightness Start Highest point End
(mag) Time Altitude Azimuth Time Altitude Azimuth Time Altitude Azimuth
Cosmos 1626 Rocket 3.9 15:39:57 10° N 15:44:06 41° ENE 15:48:11 10° SE
Cosmos 2084 3.4 15:40:42 10° SW 15:44:54 82° NW 15:49:05 10° NE
IGS 5A 3.7 15:41:46 10° SE 15:45:32 44° ENE 15:49:20 10° N
Cosmos 2227 Rocket 3.0 15:41:19 10° NNW 15:46:16 30° NE 15:51:10 10° ESE
MOS 1 Rocket 4.5 15:42:55 10° ESE 15:46:52 24° ENE 15:50:58 10° N
Cosmos 1892 Rocket 4.1 15:43:59 10° NNW 15:48:26 67° W 15:52:50 10° S
NOSS 2-2 (D) 4.1 15:48:17 10° S 15:51:07 26° SE 15:53:43 10° ENE
Cosmos 2369 Rocket 3.1 15:46:14 10° WSW 15:51:37 44° NW 15:57:04 10° NNE
Cosmos 2084 Rocket 3.7 15:47:59 10° NW 15:52:03 45° NNE 15:56:07 10° ESE
Cosmos 1943 Rocket 4.2 15:49:23 10° NW 15:52:22 14° NNW 15:55:22 10° N
Cosmos 724 4.4 15:47:31 10° NW 15:53:36 64° NE 15:59:29 10° SE
Thor Agena Rocket 3.7 15:49:23 10° SE 15:54:26 53° ENE 15:59:27 10° N
BlueWalker 3 3.0 15:52:07 10° WNW 15:55:35 44° SSW 15:59:04 10° SE
Cosmos 1356 Rocket 3.3 15:55:05 10° S 15:59:07 72° E 16:03:13 10° NNE
Meteor 1-28 Rocket 3.5 15:56:03 10° NNE 15:59:12 36° E 16:02:19 10° SSE
Cosmos 2026 Rocket 4.4 15:54:14 10° NNW 16:00:27 73° W 16:06:43 10° S
Cosmos 2278 Rocket 4.3 15:58:57 10° NW 16:02:00 15° NNW 16:05:04 10° NNE
Cosmos 1544 Rocket 4.0 15:59:58 10° SSE 16:04:05 41° E 16:08:16 10° NNE
Cosmos 1484 Rocket 2.5 16:01:14 10° SSE 16:04:45 87° E 16:08:17 10° NNW
Cosmos 1697 Rocket 4.1 16:01:54 10° SE 16:05:34 18° E 16:09:00 11° ENE
IRS-1C 4.4 16:00:36 10° SE 16:05:37 44° ENE 16:10:40 10° N
NOSS 2-2 (E) 3.9 16:02:51 10° S 16:05:46 28° SE 16:08:05 12° ENE
Intercosmos 24 3.6 16:04:20 10° N 16:08:24 71° ENE 16:11:56 10° SSE
Cosmos 405 Rocket 2.2 16:05:18 10° NNW 16:08:34 86° ENE 16:11:48 10° SSE
Cosmos 1634 Rocket 4.0 16:04:02 10° S 16:10:12 80° E 16:16:24 10° NNE
Okean 1-7 Rocket 4.3 16:06:47 10° N 16:10:44 31° ENE 16:14:38 10° SE
Lacrosse 5 rocket 1.1 16:09:31 10° WSW 16:13:16 76° NNW 16:16:22 14° ENE
Cosmos 1461 4.3 16:15:13 10° SSE 16:18:07 20° ESE 16:20:09 14° ENE
CENTAUR R/B 2.8 16:12:18 10° SW 16:18:09 71° NW 16:25:22 11° NE
Meteor 1-20 Rocket 4.3 16:14:27 10° N 16:19:49 52° ENE 16:25:08 10° SSE
Cosmos 1455 Rocket 4.1 16:18:20 10° SSW 16:22:30 45° WNW 16:26:43 10° N
Cosmos 1602 Rocket 3.6 16:18:12 10° N 16:22:33 54° ENE 16:26:49 10° SSE
Cosmos 2279 Rocket 4.0 16:18:38 10° S 16:24:49 73° E 16:31:02 10° NNE
IRIDIUM 103 4.4 16:22:36 10° N 16:27:44 54° E 16:32:50 10° SSE
SMAP 3.0 16:26:22 10° SSE 16:31:02 81° ENE 16:35:43 10° NNW
ERS-1 4.5 16:26:47 10° SE 16:31:41 57° ENE 16:36:34 10° N
UNK 3.8 16:27:33 10° NNE 16:32:06 57° ESE 16:36:35 10° S
Cosmos 1656 3.7 16:26:57 10° SSW 16:32:32 69° ESE 16:37:56 11° NE
YAOGAN 1 3.6 16:31:34 10° ESE 16:35:00 24° ENE 16:38:26 10° N
Cosmos 1867 3.5 16:30:19 10° NW 16:35:48 73° NE 16:41:15 10° SE
Cosmos 2228 3.5 16:31:53 10° SSW 16:36:04 60° WNW 16:40:17 10° N
NOSS 2-2 (C) 3.0 16:33:06 10° WSW 16:36:12 58° NW 16:38:05 20° NE
Landsat 7 3.7 16:31:53 10° SSE 16:36:31 72° ENE 16:41:11 10° N
SAR-Lupe-4 3.4 16:33:17 10° SSE 16:36:47 65° ENE 16:40:20 10° N
Cosmos 1486 Rocket 4.0 16:32:28 10° S 16:37:35 61° ESE 16:42:24 12° NNE
NOSS 7 (H) 4.0 16:35:47 10° NW 16:38:41 61° NE 16:41:17 13° ESE
Cosmos 2297 Rocket 2.4 16:33:57 10° NNW 16:39:38 77° WSW 16:45:17 10° SSE
USA 290 2.4 16:36:27 10° NNW 16:39:43 74° WSW 16:42:57 10° SSE
USA 215 3.5 16:35:28 16° ENE 16:40:44 58° N 16:47:08 10° WNW
Cosmos 2180 Rocket 4.4 16:36:15 10° S 16:42:20 70° E 16:48:29 10° NNE
Resurs 01 Rocket 3.7 16:47:37 11° NNE 16:47:37 11° NNE 16:47:58 10° NNE
Cosmos 1953 Rocket 4.3 16:41:22 10° N 16:45:20 31° ENE 16:49:19 10° SE
SAR-Lupe-1 3.9 16:42:16 10° SSE 16:45:51 72° ENE 16:49:28 10° N
IRIDIUM 106 4.2 16:40:52 10° N 16:46:07 75° E 16:51:20 10° S
Cosmos 1782 2.6 16:42:50 10° SSW 16:46:27 77° WNW 16:50:03 10° N
ATLAS CENTAUR R/B 2.7 16:43:48 10° WNW 16:46:43 31° WSW 16:49:33 10° S
CZ-4C R/B 3.0 16:40:59 10° NW 16:47:43 86° SW 16:56:14 10° SE
Cosmos 1607 4.3 16:42:46 10° NW 16:48:58 71° SW 16:55:13 10° SSE
Cosmos 1733 4.3 16:48:01 10° NW 16:49:13 18° W 16:50:25 10° SW
CZ-2D R/B 2.6 16:49:14 10° SSE 16:52:22 87° WSW 16:55:33 10° NNW
Meteor 1-25 Rocket 4.2 16:49:19 10° N 16:55:11 75° ENE 17:00:58 10° SSE
IRS-P3 4.0 16:50:03 10° SSE 16:55:21 76° ENE 17:00:41 10° NNW
Lacrosse 4 Rocket 3.0 16:52:43 10° W 16:56:11 26° NW 16:59:05 13° NNE
Cosmos 1825 Rocket 3.5 16:51:59 10° N 16:56:20 60° ENE 17:00:36 10° SSE
Cosmos 2219 3.8 16:51:06 10° NNW 16:56:24 37° NE 16:59:37 21° E
ARIANE 5 R/B 2.6 16:52:03 10° SSE 16:57:07 79° WSW 17:02:17 10° NNW
Cosmos 990 Rocket 4.5 16:52:54 10° S 16:57:34 37° ESE 16:59:48 25° ENE
Cosmos 2266 Rocket 3.9 16:52:27 10° N 16:58:41 90° ESE 17:04:45 10° S
Meteor 1-5 Rocket 4.1 16:57:25 10° N 17:02:42 58° ENE 17:08:02 10° SSE
Cosmos 2098 Rocket 3.4 16:58:46 10° SSW 17:02:53 69° WNW 17:07:47 10° N
Cosmos 2151 3.4 16:59:48 10° NNW 17:03:55 63° W 17:08:01 10° S
Cosmos 1743 3.7 17:01:30 10° NNW 17:04:34 39° W 17:07:37 10° SSW
SPOT 1/Viking Rocket 3.5 17:01:54 10° SSE 17:07:03 66° ENE 17:12:14 10° N
Cosmos 1980 Rocket 3.2 17:03:19 10° SSE 17:07:49 25° ESE 17:08:01 25° E
Cosmos 1844 Rocket 3.9 17:06:26 10° NNW 17:10:47 22° NE 17:10:59 22° NE
SL-16 R/B 3.4 17:08:45 10° N 17:14:43 48° WNW 17:20:36 10° SW
Cosmos 2263 Rocket 2.1 17:12:25 10° NNW 17:18:05 64° NE 17:23:09 13° SE
NOSS 3-2 (C) 3.1 17:15:05 10° SW 17:20:11 73° SE 17:23:02 32° NE
NOSS 3-2 (A) 3.6 17:15:12 10° WSW 17:20:24 62° NW 17:24:05 25° NE
GEOS 3 Rocket 3.8 17:19:36 25° NE 17:22:46 71° NW 17:28:07 10° SW
CZ-4 R/B 4.3 17:19:58 10° SSE 17:23:56 86° W 17:27:55 10° NNW
MOS 1 Rocket 3.9 17:19:34 10° S 17:24:26 64° W 17:29:36 10° NNW
Cosmos 1076 Rocket 3.3 17:21:23 10° N 17:25:41 76° ENE 17:30:00 10° SSE
BREEZE M DEB (TANK) 3.8 17:24:17 10° SW 17:25:20 20° SSW 17:25:20 20° SSW
Cosmos 1933 3.2 17:25:10 10° SSW 17:29:00 78° W 17:30:45 31° N
Cosmos 2227 Rocket 2.4 17:25:10 10° NW 17:30:48 71° WSW 17:36:25 10° SSE
Cosmos 1538 Rocket 3.9 17:26:29 10° NNW 17:31:47 73° ENE 17:36:28 13° SSE
Cosmos 1606 Rocket 3.6 17:28:05 10° SSW 17:32:29 82° W 17:35:24 22° N
PSLV R/B 3.2 17:36:04 50° SE 17:37:01 74° ENE 17:41:04 10° NNW
Cosmos 2369 Rocket 4.4 17:33:45 10° WNW 17:37:11 16° NNW 17:40:31 10° NNE
CZ-2D R/B 3.5 17:33:36 10° SSE 17:37:49 81° WSW 17:42:00 10° NNW
COSMO-SKYMED 1 3.2 17:39:14 37° SSE 17:39:14 37° SSE 17:41:58 10° S
Cosmos 1943 Rocket 4.3 17:37:40 10° N 17:38:44 10° N 17:39:20 10° N
NOSS 2-2 (D) 4.1 17:37:21 10° W 17:40:03 31° NW 17:40:03 31° NW
Cosmos 1244 Rocket 4.4 17:34:40 10° N 17:40:56 63° ENE 17:47:06 10° SSE
SL-19 R/B 4.1 17:36:06 10° SSE 17:41:29 83° ENE 17:47:12 10° NNW
Resurs 1-3 3.4 17:37:31 10° SSE 17:41:50 89° ENE 17:46:10 10° NNW
Cosmos 1503 Rocket 4.3 17:38:03 10° SW 17:43:16 65° WNW 17:46:10 26° NNE
BREEZE-M DEB (TANK) 4.1 17:40:18 10° W 17:43:56 64° S 17:48:33 29° ESE
Meteor 2-20 4.3 17:42:01 10° S 17:48:11 79° E 17:54:10 11° NNE
Cosmos 1697 Rocket 2.6 17:43:07 10° SSW 17:48:44 90° WNW 17:50:45 42° NNE
Cosmos 2278 Rocket 4.4 17:47:04 10° N 17:48:46 11° N 17:49:06 11° N
Lacrosse 5 rocket 2.3 17:47:09 10° WNW 17:49:58 34° NNW 17:49:58 34° NNW
Cosmos 1354 Rocket 4.1 17:46:13 10° SSW 17:51:29 76° WNW 17:53:34 38° NNE
BREEZE-M DEB (TANK) 4.1 17:49:17 10° W 17:53:04 90° NNE 17:57:03 37° E
Cosmos 1461 3.1 17:50:38 10° SW 17:54:18 62° WNW 17:54:18 62° WNW
Spot 4 Rocket 4.3 17:50:32 10° S 17:55:37 69° WSW 18:00:45 10° NNW
IRAS Rocket 4.2 17:51:17 10° SSE 17:56:46 79° WSW 18:02:17 10° NNW
Cosmos 1726 Rocket 4.0 17:53:12 10° SSW 17:57:49 64° WNW 17:59:49 32° N
SL-08 R/B 4.4 17:52:55 10° N 17:59:14 71° ENE 18:05:33 10° SSE
Cosmos 1655 Rocket 4.4 17:53:45 10° NNW 17:59:55 62° W 18:06:01 10° S
SKYMED 2 3.8 17:59:36 52° NNW 18:00:27 67° WNW 18:04:46 10° SSW
Gbstr 26 Del rocket 4.1 18:00:15 10° SW 18:02:38 31° SSW 18:02:38 31° SSW
Meteor 2-10 4.3 18:01:58 10° NNW 18:07:16 71° W 18:12:45 10° S
CENTAUR R/B 3.7 18:03:56 10° WNW 18:09:59 37° NNW 18:12:27 30° NNE
Meteor 2-20 Rocket 4.3 18:04:04 10° S 18:10:19 83° E 18:12:30 43° NNE
YAOGAN 1 3.5 18:06:30 10° S 18:10:37 47° W 18:14:45 10° NNW
Cosmos 923 Rocket 4.5 18:08:49 10° NNW 18:12:38 48° N 18:12:38 48° N
USA 281 4.0 18:17:15 34° NNE 18:17:15 34° NNE 18:21:44 10° NNW
Cosmos 2082 3.6 18:11:08 10° NNW 18:16:53 90° ENE 18:17:04 85° SE
Meteor 1-26 Rocket 4.4 18:13:53 10° S 18:18:03 55° S 18:18:03 55° S
USA 238 DEB 3.5 18:14:16 10° SSW 18:19:57 64° SSE 18:19:57 64° SSE
USA 238 3.5 18:14:22 10° SSW 18:20:02 63° SSE 18:20:02 63° SSE
Resurs 01 Rocket 4.1 18:25:00 13° NNW 18:25:00 13° NNW 18:25:31 10° NNW
USA 215 3.1 18:22:49 70° ENE 18:23:28 76° NNE 18:30:02 10° WNW
Cosmos 2219 3.8 18:35:12 10° NW 18:40:47 54° WSW 18:41:35 50° SW
Cosmos 1980 Rocket 3.0 18:45:42 10° SW 18:49:48 48° WSW 18:49:48 48° WSW
Cosmos 1844 Rocket 4.1 18:49:57 10° NNW 18:52:37 29° NNW 18:52:37 29° NNW
Cosmos 2263 Rocket 4.0 18:56:53 10° NW 19:01:36 28° WSW 19:04:58 16° SSW
CENTAUR R/B 4.4 19:55:46 10° NW 19:59:34 29° NNW 19:59:34 29° NNW
